1287273625133,99.9597
1287273685133,99.8044
1287273745133,99.9087
1287273805133,99.8998
1287273865133,99.7225
1287273925133,100.032
1287273985133,99.8864
1287274045133,99.8199
1287274105133,99.9416
1287274165133,100.199
1287274225133,100.139
1287274285133,99.9695
1287274345133,99.9656
1287274405133,100.093
1287274465133,99.9368
1287274525133,99.9673
1287274585133,99.9138
1287274645133,99.8215
1287274705133,100.712
1287274765133,100.052
1287274825133,99.9629
1287274885133,99.8234
1287274945133,99.9158
1287275005133,100.095
1287275065133,100.031
1287275125133,99.9944
1287275185133,100.070
1287275245133,100.232
1287275305133,99.9479
1287275365133,100.016
1287275425133,100.142
1287275485133,100.154
1287275545133,99.9345
1287275605133,100.135
1287275665133,100.477
1287275725133,100.464
1287275785133,100.315
1287275845133,100.365
1287275905133,100.224
1287275965133,100.042
1287276025133,100.170
1287276085133,100.430
1287276145133,100.200
1287276205133,100.010
1287276265133,100.172
1287276325133,100.472
1287276385133,100.186
1287276445133,100.379
1287276505133,100.439
1287276565133,100.146
1287276625133,100.180
1287276685133,100.414
1287276745133,100.118
1287276805133,100.185
1287276865133,100.176
1287276925133,99.9383
1287276985133,100.145
1287277045133,100.242
1287277105133,100.125
1287277165133,100.068
1287277225144,100.284
1287277285144,100.233
1287277345144,100.409
1287277405144,100.225
1287277465144,100.287
1287277525144,100.168
1287277585144,100.109
1287277645144,100.261
1287277705144,100.122
1287277765144,100.123
1287277825144,100.141
1287277885144,100.045
1287277945144,100.158
1287278005144,100.185
1287278065144,100.183
1287278125144,100.222
1287278185144,100.056
1287278245144,100.084
1287278305144,100.073
1287278365144,100.138
1287278425144,100.051
1287278485144,100.209
1287278545144,100.028
1287278605144,99.9445
1287278665144,100.208
1287278725144,100.044
1287278785144,100.056
1287278845144,99.7757
1287278905144,99.9712
1287278965144,99.9165
1287279025144,100.001
1287279085144,99.9674
1287279145144,100.006
1287279205144,99.9781
1287279265144,99.8379
1287279325144,99.8705
1287279385144,99.7400
1287279445144,100.062
1287279505144,100.165
1287279565144,99.9687
1287279625144,99.7550
1287279685144,99.8960
1287279745144,99.9825
1287279805144,100.117
1287279865144,99.8748
1287279925144,100.089
1287279985144,100.078
1287280045144,99.9050
1287280105144,99.9096
1287280165144,99.9527
1287280225144,100.067
1287280285144,99.8691
1287280345144,100.087
1287280405144,100.080
1287280465144,100.140
1287280525144,99.9043
1287280585144,99.8703
1287280645144,100.205
1287280705144,99.9147
1287280765144,99.9414
1287280825155,100.090
1287280885155,100.057
1287280945155,100.061
1287281005155,99.9832
1287281065155,100.045
1287281125155,100.206
1287281185155,99.9819
1287281245155,99.9277
1287281305155,99.7710
1287281365155,99.9809
1287281425155,99.9987
1287281485155,99.9041
1287281545155,99.8931
1287281605155,99.9059
1287281665155,99.8864
1287281725155,99.9807
1287281785155,99.8650
1287281845155,99.8690
1287281905155,99.7366
1287281965155,99.9013
1287282025155,99.7853
1287282085155,99.8065
1287282145155,100.003
1287282205155,100.115
1287282265155,99.9944
1287282325155,99.9899
1287282385155,99.7768
1287282445155,99.8062
1287282505155,99.9945
1287282565155,99.7367
1287282625155,99.8887
1287282685155,99.8740
1287282745155,99.8051
1287282805155,100.018
1287282865155,99.8097
1287282925155,99.7096
1287282985155,99.7945
1287283045155,99.7643
1287283105155,99.8233
1287283165155,99.8931
1287283225155,99.8030
1287283285155,99.6529
1287283345155,99.4244
1287283405155,99.8827
1287283465155,99.8250
1287283525155,99.8235
1287283585155,99.6069
1287283645155,99.8002
1287283705155,99.7721
1287283765155,99.8357
1287283825155,99.7831
1287283885155,99.8368
1287283945155,99.8245
1287284005155,99.8452
1287284065155,99.7674
1287284125155,99.7693
1287284185155,99.9785
1287284245155,99.7231
1287284305155,99.8642
1287284365155,99.8402
1287284425165,99.8520
1287284485165,99.6966
1287284545165,99.5626
1287284605165,99.8153
1287284665165,99.7732
1287284725165,99.8361
1287284785165,99.5455
1287284845165,99.7330
1287284905165,99.8898
1287284965165,99.6821
1287285025165,99.8939
1287285085165,99.7441
1287285145165,99.8103
1287285205165,99.5611
1287285265165,99.6516
1287285325165,99.8802
1287285385165,99.7256
1287285445165,99.8344
1287285505165,99.6481
1287285565165,99.7859
1287285625165,99.6645
1287285685165,99.7932
1287285745165,99.7916
1287285805165,99.6856
1287285865165,99.7008
1287285925165,99.5851
1287285985165,99.8159
1287286045165,99.7588
1287286105165,99.6865
1287286165165,99.9836
1287286225165,99.6563
1287286285165,99.7505
1287286345165,99.4593
1287286405165,99.9551
1287286465165,100.450
1287286525165,99.7372
1287286585165,99.8030
1287286645165,99.6714
1287286705165,99.7001
1287286765165,99.6463
1287286825165,99.4842
1287286885165,99.5233
1287286945165,99.6576
1287287005165,99.3873
1287287065165,99.4302
1287287125165,99.7051
1287287185165,99.5882
1287287245165,99.5783
1287287305165,99.3944
1287287365165,99.6986
1287287425165,99.5711
1287287485165,99.4302
1287287545165,99.6279
1287287605165,99.7613
1287287665165,99.5645
1287287725165,99.4883
1287287785165,99.3719
1287287845165,99.6715
1287287905165,99.6293
1287287965165,99.7558
1287288025175,99.9010
1287288085175,99.6313
1287288145175,99.4099
1287288205175,99.6018
1287288265175,99.7334
1287288325175,99.5977
1287288385175,99.6922
1287288445175,99.7126
1287288505175,99.7015
1287288565175,99.4441
1287288625175,99.7283
1287288685175,99.5913
1287288745175,99.5909
1287288805175,99.5752
1287288865175,99.7265
1287288925175,99.7551
1287288985176,99.5520
1287289045176,99.6943
1287289105176,99.7007
1287289165176,99.5520
1287289225176,99.7386
1287289285175,99.7150
1287289345175,99.8879
1287289405175,99.7672
1287289465175,99.5670
1287289525175,99.9176
1287289585175,99.9159
1287289645175,99.6771
1287289705175,99.7018
1287289765175,100.036
1287289825175,99.9174
1287289885175,99.8095
1287289945175,99.6962
1287290005175,99.5882
1287290065175,99.6552
1287290125175,99.6672
1287290185175,99.7717
1287290245175,99.6857
1287290305175,99.5946
1287290365176,99.5742
1287290425176,99.7238
1287290485176,99.7078
1287290545176,99.8203
1287290605175,99.6342
1287290665175,99.8598
1287290725175,99.6935
1287290785175,99.7777
1287290845175,99.4217
1287290905175,99.7386
1287290965175,99.5184
1287291025175,99.6317
1287291085175,99.4383
1287291145175,99.6268
1287291205175,99.5938
1287291265175,99.5375
1287291325175,99.3820
1287291385175,99.7232
1287291445175,99.5045
1287291505175,99.4842
1287291565175,99.5376
1287291625186,99.4796
1287291685186,99.6577
1287291745186,99.5943
1287291805186,99.3324
1287291865186,99.5838
1287291925186,99.3249
1287291985186,99.4017
1287292045186,99.3575
1287292105186,99.3765
1287292165186,99.5437
1287292225186,99.3035
1287292285186,99.2443
1287292345186,99.3619
1287292405186,99.2783
1287292465186,99.4440
1287292525186,99.3204
1287292585186,99.4255
1287292645186,99.4798
1287292705186,99.5392
1287292765186,99.6892
1287292825186,99.5047
1287292885186,99.5583
1287292945186,99.4670
1287293005186,99.4083
1287293065186,99.5418
1287293125186,99.6340
1287293185186,99.8173
1287293245186,99.6507
1287293305186,99.7616
1287293365186,99.8543
1287293425186,99.7022
1287293485186,99.9919
1287293545186,99.8099
1287293605186,99.5990
1287293665186,99.7954
1287293725186,99.9031
1287293785186,100.028
1287293845186,99.8217
1287293905186,99.9172
1287293965186,99.9542
1287294025186,99.9399
1287294085186,99.7082
1287294145186,99.8101
1287294205186,99.8819
1287294265186,99.8146
1287294325186,99.8773
1287294385186,99.8680
1287294445186,99.6953
1287294505186,99.9207
1287294565186,100.001
1287294625186,99.9460
1287294685186,99.9032
1287294745186,100.049
1287294805186,99.9523
1287294865186,100.089
1287294925186,100.023
1287294985186,99.9720
1287295045186,99.7388
1287295105186,99.9857
1287295165186,100.032
1287295225197,99.8597
1287295285197,99.9526
1287295345197,99.8831
1287295405197,99.7877
1287295465197,99.9184
1287295525197,99.9557
1287295585197,99.9013
1287295645197,99.8524
1287295705197,100.110
1287295765197,99.9843
1287295825197,99.8979
1287295885197,99.8672
1287295945197,99.7848
1287296005197,99.9029
1287296065197,100.009
1287296125197,99.9544
1287296185197,99.9665
1287296245197,100.110
1287296305197,99.9520
1287296365197,100.117
1287296425197,99.8662
1287296485197,99.9086
1287296545197,99.8294
1287296605197,99.8354
1287296665197,99.7931
1287296725197,99.9794
1287296785197,100.020
1287296845197,99.7319
1287296905197,99.9830
1287296965197,100.050
1287297025197,99.8591
1287297085197,99.9629
1287297145197,99.9045
1287297205197,100.014
1287297265197,100.031
1287297325197,99.7931
1287297385197,99.9827
1287297445197,99.9154
1287297505197,99.7719
1287297565197,99.8995
1287297625197,99.9575
1287297685197,100.089
1287297745197,100.112
1287297805197,100.084
1287297865197,100.142
1287297925197,100.191
1287297985197,100.505
1287298045197,100.118
1287298105197,100.101
1287298165197,100.294
1287298225197,100.329
1287298285197,100.099
1287298345197,100.290
1287298405197,100.334
1287298465197,100.180
1287298525197,100.232
1287298585197,100.224
1287298645197,100.398
1287298705197,100.192
1287298765197,100.164
1287298825207,100.256
1287298885207,100.336
1287298945207,100.279
1287299005207,100.083
1287299065207,100.352
1287299125207,100.219
1287299185207,100.148
1287299245207,100.199
1287299305207,100.349
1287299365207,100.277
1287299425207,100.147
1287299485207,100.323
1287299545207,100.209
1287299605207,100.425
1287299665207,100.300
1287299725207,100.109
1287299785207,100.148
1287299845207,100.275
1287299905207,100.307
1287299965207,100.300
1287300025207,100.273
1287300085207,100.349
1287300145207,100.369
1287300205207,100.134
1287300265207,100.430
1287300325207,100.089
1287300385207,100.265
1287300445207,100.379
1287300505207,100.330
1287300565207,100.230
1287300625207,100.338
1287300685207,100.335
1287300745207,100.402
1287300805207,100.220
1287300865207,100.171
1287300925207,100.344
1287300985207,100.140
1287301045207,100.237
1287301105207,100.179
1287301165207,100.652
1287301225207,100.440
1287301285207,100.363
1287301345207,100.507
1287301405207,100.378
1287301465207,100.427
1287301525207,100.580
1287301585207,100.533
1287301645207,100.261
1287301705207,100.397
1287301765207,100.412
1287301825207,100.062
1287301885207,100.483
1287301945207,100.518
1287302005207,100.734
1287302065207,100.243
1287302125207,100.464
1287302185207,100.576
1287302245207,100.654
1287302305207,100.460
1287302365207,100.416
1287302425218,100.542
1287302485218,100.380
1287302545218,100.522
1287302605218,100.549
1287302665218,100.457
1287302725218,100.580
1287302785218,100.881
1287302845218,100.564
1287302905218,100.649
1287302965218,100.632
1287303025218,100.562
1287303085218,100.648
1287303145218,100.616
1287303205218,100.570
1287303265218,100.794
1287303325218,100.745
1287303385218,100.558
1287303445218,100.643
1287303505218,100.702
1287303565218,100.392
1287303625218,100.550
1287303685218,100.855
1287303745218,100.595
1287303805218,100.600
1287303865218,100.477
1287303925218,100.601
1287303985218,100.486
1287304045218,100.459
1287304105218,100.398
1287304165218,100.815
1287304225218,100.520
1287304285218,100.439
1287304345218,100.437
1287304405218,100.619
1287304465218,100.455
1287304525218,100.422
1287304585218,100.475
1287304645218,100.826
1287304705218,100.504
1287304765218,100.496
1287304825218,100.454
1287304885218,100.386
1287304945218,100.512
1287305005218,100.620
1287305065218,100.567
1287305125218,100.470
1287305185218,100.595
1287305245218,100.620
1287305305218,100.497
1287305365218,100.216
1287305425218,100.540
1287305485218,100.417
1287305545218,100.737
1287305605218,100.430
1287305665218,100.749
1287305725218,100.576
1287305785218,101.038
1287305845218,100.835
1287305905218,101.096
1287305965218,101.023
1287306025229,101.187
1287306085229,101.303
1287306145229,101.141
1287306205229,101.331
1287306265229,101.052
1287306325229,100.857
1287306385229,100.803
1287306445229,101.123
1287306505229,100.759
1287306565229,100.649
1287306625229,100.774
1287306685229,100.786
1287306745229,100.850
1287306805229,100.638
1287306865229,100.421
1287306925229,100.856
1287306985229,100.633
1287307045229,100.429
1287307105229,100.880
1287307165229,100.759
1287307225229,100.966
1287307285229,100.559
1287307345229,100.734
1287307405229,100.671
1287307465229,100.583
1287307525229,100.635
1287307585229,100.633
1287307645229,100.557
1287307705229,100.657
1287307765229,100.490
1287307825229,100.713
1287307885229,100.628
1287307945229,100.693
1287308005229,100.738
1287308065229,100.551
1287308125229,100.688
1287308185229,100.569
1287308245229,100.685
1287308305229,100.399
1287308365229,100.542
1287308425229,100.605
1287308485229,100.567
1287308545229,100.622
1287308605229,100.817
1287308665229,100.712
1287308725229,100.703
1287308785229,100.546
1287308845229,100.762
1287308905229,100.557
1287308965229,100.691
1287309025229,100.837
1287309085229,100.574
1287309145229,100.554
1287309205229,100.774
1287309265229,100.788
1287309325229,100.525
1287309385229,100.839
1287309445229,100.760
1287309505229,100.741
1287309565229,100.774
1287313225252,101.811
1287313285252,101.656
1287313345252,101.648
1287313405252,101.916
1287313465252,101.789
1287313525252,101.729
1287313585252,101.626
1287313645252,101.637
1287313705252,101.554
1287313765252,101.619
1287313825252,101.728
1287313885252,101.787
1287313945252,101.487
1287314005252,101.527
1287314065252,101.447
1287314125252,101.426
1287314185252,101.626
1287314245252,101.470
1287314305252,101.673
1287314365252,101.396
1287314425252,101.731
1287314485252,101.247
1287314545252,101.421
1287314605252,101.438
1287314665252,101.436
1287314725252,101.660
1287314785252,101.357
1287314845252,101.289
1287314905252,101.370
1287314965252,101.872
1287315025252,101.504
1287315085252,101.576
1287315145252,101.197
1287315205252,101.404
1287315265252,101.219
1287315325252,101.280
1287315385252,101.309
1287315445252,101.240
1287315505252,101.401
1287315565252,101.442
1287315625252,101.559
1287315685252,101.422
1287315745252,101.583
1287315805252,101.579
1287315865252,101.402
1287315925252,101.325
1287315985252,101.397
1287316045252,101.612
1287316105252,101.478
1287316165252,101.436
1287316225252,101.551
1287316285252,101.449
1287316345252,101.546
1287316405252,101.632
1287316465252,101.554
1287316525252,101.637
1287316585252,101.368
1287316645252,101.632
1287316705252,101.598
1287316765252,101.362
1287316825263,101.591
1287316885263,101.566
1287316945263,101.583
1287317005263,101.682
1287317065263,101.516
1287317125263,101.512
1287317185263,101.635
1287317245263,101.816
1287317305263,101.674
1287317365263,101.842
1287317425263,101.760
1287317485263,101.811
1287317545263,101.634
1287317605263,101.744
1287317665263,101.732
1287317725263,101.734
1287317785263,101.616
1287317845263,101.827
1287317905263,101.798
1287317965263,101.776
1287318025263,101.849
1287318085263,101.841
1287318145263,101.653
1287318205263,101.675
1287318265263,101.688
1287318325263,101.844
1287318385263,101.744
1287318445263,101.802
1287318505263,101.658
1287318565263,101.365
1287318625263,102.000
1287318685263,101.618
1287318745263,101.725
1287318805263,101.896
1287318865263,101.780
1287318925263,101.925
1287318985263,101.963
1287319045263,101.891
1287319105263,102.060
1287319165263,101.976
1287319225263,102.031
1287319285263,102.161
1287319345263,101.668
1287319405263,101.914
1287319465263,101.944
1287319525263,102.075
1287319585263,102.068
1287319645263,102.008
1287319705263,102.006
1287319765263,102.037
1287319825263,102.264
1287319885263,101.956
1287319945263,102.134
1287320005263,102.160
1287320065263,102.001
1287320125263,102.019
1287320185263,101.720
1287320245263,101.938
1287320305263,101.950
1287320365263,101.937
1287320425275,101.983
1287320485275,101.923
1287320545275,102.021
1287320605275,101.848
1287320665275,101.920
1287320725275,102.020
1287320785275,101.962
1287320845275,101.727
1287320905275,102.292
1287320965275,102.200
1287321025275,101.962
1287321085275,101.744
1287321145275,101.932
1287321205275,101.786
1287321265275,101.844
1287321325275,101.673
1287321385275,101.941
1287321445275,101.929
1287321505275,101.999
1287321565275,101.776
1287321625275,101.992
1287321685275,101.868
1287321745275,101.783
1287321805275,101.603
1287323005275,101.775
1287323065275,102.098
1287323125275,101.900
1287323185275,101.925
1287323245275,102.056
1287323305275,101.808
1287323365275,101.952
1287323425275,102.014
1287323485275,102.044
1287323545275,102.100
1287323605275,101.764
1287323665275,101.882
1287323725275,101.645
1287323785275,101.923
1287323845275,102.017
1287323905275,102.191
1287323965275,101.805
1287324025287,101.902
1287324085287,101.946
1287324145287,101.813
1287324205287,101.657
1287324265287,101.679
1287324325287,101.833
1287324385287,101.582
1287324445287,101.817
1287324505287,102.011
1287324565287,101.640
1287324625287,101.866
1287324685287,101.661
1287324745287,101.807
1287324805287,101.663
1287324865287,101.709
1287324925287,101.812
1287324985287,101.656
1287325045287,101.710
1287325105287,101.562
1287325165287,101.971
1287325225287,101.647
1287325285287,101.614
1287325345287,101.840
1287325405287,101.854
1287325465287,101.784
1287325525287,101.754
1287325585287,101.779
1287325645287,101.463
1287325705287,101.787
1287325765287,101.560
1287325825287,101.777
1287325885287,101.723
1287325945287,101.649
1287326005287,101.849
1287326065287,101.624
1287326125287,101.635
1287326185287,101.652
1287326245287,101.748
1287326305287,101.700
1287326365287,101.858
1287326425287,101.607
1287326485287,101.708
1287326545287,101.748
1287326605287,101.631
1287326665287,101.424
1287326725287,101.775
1287326785287,101.644
1287326845287,101.465
1287326905287,101.559
1287326965287,101.390
1287327025287,101.674
1287327085287,101.758
1287327145287,101.836
1287327205287,101.651
1287327265287,101.409
1287327325287,101.649
1287327385287,101.724
1287327445287,101.463
1287327505287,101.606
1287327565287,101.803
1287327625299,101.597
1287327685299,102.080
1287327745299,101.792
1287327805299,101.821
1287327865299,101.678
1287327925299,101.810
1287327985299,101.886
1287328045299,101.793
1287328105299,101.654
1287328165299,101.716
1287328225299,101.640
1287328285299,101.684
1287328345299,101.815
1287328405299,101.807
1287328465299,101.810
1287328525299,101.814
1287328585299,101.782
1287328645299,101.754
1287328705299,101.690
1287328765299,101.632
1287328825299,101.650
1287328885299,101.759
1287328945299,101.452
1287329005299,101.602
1287329065299,101.852
1287329125299,101.699
1287329185299,101.663
1287329245299,101.568
1287329305299,101.518
1287329365299,101.545
1287329425299,101.799
1287329485299,101.721
1287329545299,101.570
1287329605299,101.564
1287329665299,101.532
1287329725299,101.675
1287329785299,101.597
1287329845299,101.623
1287329905299,101.612
1287329965299,101.884
1287330025299,101.737
1287330085299,101.493
1287330145299,101.722
1287330205299,101.749
1287330265299,101.473
1287330325299,101.618
1287330385299,101.462
1287330445299,101.764
1287330505299,101.443
1287330565299,101.562
1287330625299,101.377
1287330685299,101.734
1287330745299,101.507
1287330805299,101.789
1287330865299,101.561
1287330925299,101.577
1287330985299,101.822
1287331045299,101.822
1287331105299,101.574
1287331165299,101.630
1287331225311,101.741
1287331285311,101.487
1287331345311,101.866
1287331405311,101.799
1287331465311,101.830
1287331525311,101.745
1287331585311,101.690
1287331645311,101.796
1287331705311,101.706
1287331765311,101.626
1287331825311,101.738
1287331885311,101.706
1287331945311,101.723
1287332005311,101.931
1287332065311,101.751
1287332125311,101.912
1287332185311,101.581
1287332245311,101.787
1287332305311,101.847
1287332365311,101.804
1287332425311,101.794
1287332485311,101.601
1287332545311,101.848
1287332605311,101.926
1287332665311,101.826
1287332725311,101.848
1287332785311,101.697
1287332845311,101.860
1287332905311,101.645
1287332965311,101.804
1287333025311,101.760
1287333085311,101.625
1287333145311,101.783
1287333205311,101.595
1287333265311,101.620
1287333325311,101.637
1287333385311,101.825
1287333445311,101.794
1287333505311,101.854
1287333565311,101.730
1287333625311,101.406
1287333685311,101.660
1287333745311,101.646
1287333805311,101.549
1287333865311,101.596
1287333925311,101.582
1287333985311,101.565
1287334045311,101.475
1287334105311,101.453
1287334165311,101.608
1287334225311,101.508
1287334285311,101.320
1287334345311,101.470
1287334405311,101.298
1287334465311,101.231
1287334525311,101.250
1287334585311,101.338
1287334645311,101.355
1287334705311,101.651
1287334765311,101.706
1287334825324,101.402
1287334885324,101.456
1287334945324,101.205
1287335005324,101.326
1287335065324,101.472
1287335125324,101.234
1287335185324,101.578
1287335245324,101.535
1287335305324,101.485
1287335365324,101.468
1287335425324,101.460
1287335485324,101.453
1287335545324,101.417
1287335605324,101.636
1287335665324,101.619
1287335725324,101.449
1287335785324,101.758
1287335845324,101.719
1287335905324,101.503
1287335965324,101.463
1287336025324,101.626
1287336085324,101.669
1287336145324,101.606
1287336205324,101.418
1287336265324,101.596
1287336325324,101.648
1287336385324,101.706
1287336445324,101.661
1287336505324,101.555
1287336565324,101.691
1287336625324,101.858
1287336685324,101.577
1287336745324,101.721
1287336805324,101.727
1287336865324,101.546
1287336925324,101.790
1287336985324,101.845
1287337045324,102.007
1287337105324,102.221
1287337165324,102.091
1287337225324,101.879
1287337285324,101.919
1287337345324,101.935
1287337405324,102.202
1287337465324,101.997
1287337525324,101.924
1287337585324,101.874
1287337645324,102.048
1287337705324,102.073
1287337765324,102.023
1287337825324,102.036
1287337885324,101.919
1287337945324,101.940
1287338005324,101.992
1287338065324,102.134
1287338125324,102.093
1287338185324,101.960
1287338245324,102.162
1287338305324,102.132
1287338365324,101.941
1287338425336,102.123
1287338485336,101.972
1287338545336,101.958
1287338605336,102.077
1287338665336,101.816
1287338725336,101.913
1287338785336,101.736
1287338845336,101.790
1287338905336,101.718
1287338965336,101.640
1287339025336,101.697
1287339085336,101.797
1287339145336,101.435
1287339205336,101.520
1287339265336,101.699
1287339325336,101.646
1287339385336,101.684
1287339445336,101.399
1287339505336,101.552
1287339565336,101.592
1287339625336,101.603
1287339685336,101.607
1287339745336,101.531
1287339805336,101.379
1287339865336,101.460
1287339925336,101.412
1287339985336,101.569
1287340045336,101.400
1287340105336,101.641
1287340165336,101.349
1287340225336,101.459
1287340285336,101.361
1287340345336,101.533
1287340405336,101.272
1287340465336,101.355
1287340525336,101.380
1287340585336,101.406
1287340645336,101.312
1287340705336,101.321
1287340765336,101.517
1287340825336,101.581
1287340885336,101.185
1287340945336,101.188
1287341005336,101.471
1287341065336,101.533
1287341125336,101.364
1287341185336,101.525
1287341245336,101.437
1287341305336,101.442
1287341365336,101.405
1287341425336,101.269
1287341485336,101.407
1287341545336,101.586
1287341605336,101.178
1287341665336,101.310
1287341725336,101.346
1287341785336,101.485
1287341845336,101.301
1287341905336,101.512
1287341965336,101.350
1287342025348,101.358
1287342085348,101.256
1287342145348,101.185
1287342205348,100.984
1287342265348,101.198
1287342325348,101.219
1287342385348,101.321
1287342445348,101.449
1287342505348,101.529
1287342565348,101.416
1287342625348,101.460
1287342685348,101.411
1287342745348,101.439
1287342805348,101.544
1287342865348,101.281
1287342925348,101.127
1287342985348,101.405
1287343045348,101.317
1287343105348,101.458
1287343165348,101.570
1287343225348,101.320
1287343285348,101.427
1287343345348,101.177
1287343405348,101.522
1287343465348,101.576
1287343525348,101.350
1287343585348,101.212
1287343645348,101.255
1287343705348,101.401